Left ArrowRight Arrow

39.71368, -82.59933

Hourly Observations for June 19, 2024

Temp ( °F °C ) Dew Point ( °F °C ) Humidity (%) Winds ( mph kmh ) Pressure ( in mb ) Visibility ( mi km ) Precip ( " mm )
12:53 am 00:53 Clear with Mist and Fog 73 22.8 73 22.8 100 100 Calm 30.16 1021 6 10 0.00 0.00
1:53 am 01:53 Clear with Mist and Fog 73 22.8 73 22.8 100 100 Calm 30.17 1022 5 8 0.00 0.00
2:53 am 02:53 Clear with Mist and Fog 73 22.8 73 22.8 100 100 Calm 30.18 1022 4 6 0.00 0.00
3:27 am 03:27 Clear with Mist and Fog 72 22.2 72 22.2 100 100 Calm 30.17 1022 2 3 0.00 0.00
3:30 am 03:30 Clear with Mist and Fog 72 22.2 72 22.2 100 100 Calm 30.18 1022 1 2 0.00 0.00
3:42 am 03:42 Clear with Mist and Fog 71 21.7 71 21.7 100 100 Calm 30.18 1022 1 2 0.00 0.00
3:53 am 03:53 Clear with Mist and Fog 71 21.7 71 21.7 100 100 WNW 3 6 30.18 1022 2 3 0.00 0.00
4:04 am 04:04 Clear with Mist and Fog 71 21.7 71 21.7 100 100 Calm 30.18 1022 3 5 0.00 0.00
4:13 am 04:13 Clear with Mist and Fog 71 21.7 71 21.7 100 100 Calm 30.18 1022 2 3 0.00 0.00
4:20 am 04:20 Clear with Mist and Fog 72 22.2 71 21.7 97 97 Calm 30.19 1022 1 2 0.00 0.00
4:41 am 04:41 Clear with Mist and Fog 71 21.7 71 21.7 100 100 Calm 30.19 1022 1 1 0.00 0.00
4:48 am 04:48 Clear with Mist and Fog 72 22 72 22 100 100 Calm 30.19 1022 1 2 0.00 0.00
4:53 am 04:53 Clear with Mist and Fog 71 21.7 71 21.7 100 100 Calm 30.19 1023 2 3 0.00 0.00
5:09 am 05:09 Clear with Mist and Fog 72 22.2 72 22.2 100 100 E 3 6 30.19 1022 3 4 0.00 0.00
5:20 am 05:20 Clear with Mist and Fog 71 21.7 71 21.7 100 100 ESE 3 6 30.19 1022 4 6 0.00 0.00
5:53 am 05:53 Clear 73 22.8 73 22.8 100 100 SE 6 9 30.21 1023 8 13 0.00 0.00
6:53 am 06:53 Sunny 74 23.3 73 22.8 97 97 Calm 30.23 1024 7 11 0.00 0.00
7:53 am 07:53 Sunny 75 23.9 72 22.2 90 90 SSE 7 11 30.25 1025 10 16 0.00 0.00
8:53 am 08:53 Sunny 77 25 72 22.2 84 84 S 7 11 30.27 1025 10 16 0.00 0.00
9:53 am 09:53 Sunny 80 26.7 72 22.2 76 76 S 8 13 30.28 1026 10 16 0.00 0.00
10:53 am 10:53 Sunny 81 27.2 72 22.2 74 74 SSW 8 13 30.28 1025 10 16 0.00 0.00
11:53 am 11:53 Sunny 82 27.8 72 22.2 72 72 SSW 6 9 30.28 1026 10 16 0.00 0.00
12:53 pm 12:53 Sunny 83 28.3 72 22.2 70 70 S 7 11 30.28 1025 10 16 0.00 0.00
1:53 pm 13:53 Sunny 83 28.3 72 22.2 70 70 S 7 11 30.28 1025 10 16 0.00 0.00
2:53 pm 14:53 Sunny 83 28.3 73 22.8 72 72 SSE 9 15 30.27 1025 10 16 0.00 0.00
3:53 pm 15:53 Sunny 83 28.3 71 21.7 67 67 SSE 9 15 30.26 1025 10 16 0.00 0.00
4:53 pm 16:53 Sunny 82 27.8 71 21.7 69 69 S 7 11 30.25 1025 10 16 0.00 0.00
5:53 pm 17:53 Sunny 83 28.3 72 22.2 70 70 S 6 9 30.25 1024 10 16 0.00 0.00
6:53 pm 18:53 Sunny 82 27.8 73 22.8 74 74 S 3 6 30.25 1024 10 16 0.00 0.00
7:53 pm 19:53 Sunny 82 27.8 73 22.8 74 74 SSE 3 6 30.23 1024 10 16 0.00 0.00
8:53 pm 20:53 Sunny 80 26.7 73 22.8 79 79 SSE 3 6 30.24 1024 10 16 0.00 0.00
9:53 pm 21:53 Clear 75 23.9 74 23.3 96 96 Calm 30.26 1025 9 14 0.00 0.00
10:53 pm 22:53 Clear with Mist and Fog 73 22.8 72 22.2 96 96 ESE 3 6 30.27 1025 6 10 0.00 0.00
11:53 pm 23:53 Clear with Mist and Fog 72 22.2 71 21.7 97 97 Calm 30.27 1025 6 10 0.00 0.00

Powered by Vaisala Xweather